LRSB Weather Reports


time (UTC)temp
C
wind
direction
speed
KPH
gust
KPH
rain 1hr
cm
rain 24hr
cm
rain mn
cm
humidity
%
barometer
mb
20260508043311 13 3.2 0.0 0.00 0.00 0.00 94 1016.0
20260508041809 12 220 4.8 0.0 0.00 0.00 0.00 100 1016.0
20260508040312 12 220 4.8 0.0 0.00 0.00 0.00 100 1016.0
20260508034808 12 250 4.8 0.0 0.00 0.00 0.00 94 1015.0
20260508033311 12 250 4.8 0.0 0.00 0.00 0.00 94 1015.0
20260508031811 12 280 3.2 0.0 0.00 0.00 0.00 94 1015.0
20260508030311 12 280 3.2 0.0 0.00 0.00 0.00 94 1015.0
20260508024811 12 250 3.2 0.0 0.00 0.00 0.00 94 1015.0
20260508023311 12 250 3.2 0.0 0.00 0.00 0.00 94 1015.0
20260508021812 12 260 8.0 0.0 0.00 0.00 0.00 100 1015.0
20260508020311 12 260 8.0 0.0 0.00 0.00 0.00 100 1015.0
20260508014811 12 260 4.8 0.0 0.00 0.00 0.00 100 1015.0
20260508013311 12 260 4.8 0.0 0.00 0.00 0.00 100 1015.0
20260508011811 13 1.6 0.0 0.00 0.00 0.00 94 1015.0
20260508010311 13 1.6 0.0 0.00 0.00 0.00 94 1015.0
20260508004811 13 1.6 0.0 0.00 0.00 0.00 100 1015.0
20260508003311 13 1.6 0.0 0.00 0.00 0.00 100 1015.0
20260508001810 13 1.6 0.0 0.00 0.00 0.00 100 1015.0
20260508000312 13 1.6 0.0 0.00 0.00 0.00 100 1015.0
20260507234812 13 3.2 0.0 0.00 0.00 0.00 100 1016.0
20260507233311 13 3.2 0.0 0.00 0.00 0.00 100 1016.0
20260507231811 13 260 9.7 0.0 0.00 0.00 0.00 100 1016.0
20260507230311 13 260 9.7 0.0 0.00 0.00 0.00 100 1016.0
20260507224811 15 260 11.3 0.0 0.00 0.00 0.00 94 1016.0
20260507223426 15 260 11.3 0.0 0.00 0.00 0.00 94 1016.0
20260507221811 15 260 9.7 0.0 0.00 0.00 0.00 100 1016.0
20260507220310 15 260 9.7 0.0 0.00 0.00 0.00 100 1016.0
20260507214811 15 3.2 0.0 0.00 0.00 0.00 100 1015.0
20260507213312 15 3.2 0.0 0.00 0.00 0.00 100 1015.0
20260507211811 16 3.2 0.0 0.00 0.00 0.00 94 1016.0
20260507210311 16 3.2 0.0 0.00 0.00 0.00 94 1016.0
20260507204811 16 270 4.8 0.0 0.00 0.00 0.00 88 1015.0
20260507203311 16 270 4.8 0.0 0.00 0.00 0.00 88 1015.0
20260507201811 16 250 8.0 0.0 0.00 0.00 0.00 94 1015.0
20260507200312 16 250 8.0 0.0 0.00 0.00 0.00 94 1015.0
20260507194817 16 8.0 0.0 0.00 0.00 0.00 88 1015.0
20260507193311 16 8.0 0.0 0.00 0.00 0.00 88 1015.0
20260507191811 17 10 4.8 0.0 0.00 0.00 0.00 88 1015.0
20260507190312 17 10 4.8 0.0 0.00 0.00 0.00 88 1015.0
20260507184813 17 340 9.7 0.0 0.00 0.00 0.00 83 1015.0
20260507183311 17 340 9.7 0.0 0.00 0.00 0.00 83 1015.0
20260507181811 17 10 11.3 0.0 0.00 0.00 0.00 78 1014.0
20260507180311 17 10 11.3 0.0 0.00 0.00 0.00 78 1014.0
20260507174810 18 340 9.7 0.0 0.00 0.00 0.00 73 1014.0
20260507173312 18 340 9.7 0.0 0.00 0.00 0.00 73 1014.0
20260507171812 20 360 8.0 0.0 0.00 0.00 0.00 64 1014.0
20260507170311 20 360 8.0 0.0 0.00 0.00 0.00 64 1014.0
20260507164811 21 3.2 0.0 0.00 0.00 0.00 53 1014.0
20260507163311 21 3.2 0.0 0.00 0.00 0.00 53 1014.0
20260507161811 22 1.6 0.0 0.00 0.00 0.00 44 1013.0
20260507160311 22 1.6 0.0 0.00 0.00 0.00 44 1013.0
20260507154811 22 3.2 0.0 0.00 0.00 0.00 53 1013.0
20260507153311 22 3.2 0.0 0.00 0.00 0.00 53 1013.0
20260507151811 22 170 11.3 0.0 0.00 0.00 0.00 44 1013.0
20260507150311 22 170 11.3 0.0 0.00 0.00 0.00 44 1013.0
20260507144811 22 160 12.9 0.0 0.00 0.00 0.00 47 1013.0
20260507143313 22 160 12.9 0.0 0.00 0.00 0.00 47 1013.0
20260507141811 22 3.2 0.0 0.00 0.00 0.00 44 1014.0
20260507140311 22 3.2 0.0 0.00 0.00 0.00 44 1014.0
20260507134811 22 3.2 0.0 0.00 0.00 0.00 50 1014.0
20260507133311 22 3.2 0.0 0.00 0.00 0.00 50 1014.0
20260507131808 22 3.2 0.0 0.00 0.00 0.00 44 1014.0
20260507130311 22 3.2 0.0 0.00 0.00 0.00 47 1014.0
20260507124811 22 300 12.9 0.0 0.00 0.00 0.00 47 1014.0
20260507123349 22 300 12.9 0.0 0.00 0.00 0.00 47 1014.0
20260507121811 22 290 16.1 0.0 0.00 0.00 0.00 47 1015.0
20260507120311 22 290 16.1 0.0 0.00 0.00 0.00 47 1015.0
20260507114811 22 280 17.7 0.0 0.00 0.00 0.00 44 1014.0
20260507113326 22 270 14.5 0.0 0.00 0.00 0.00 47 1014.0
20260507111811 22 270 14.5 0.0 0.00 0.00 0.00 47 1014.0
20260507110311 22 270 14.5 0.0 0.00 0.00 0.00 47 1014.0
20260507104810 23 300 14.5 0.0 0.00 0.00 0.00 44 1014.0
20260507103311 23 300 14.5 0.0 0.00 0.00 0.00 44 1014.0
20260507101811 25 310 9.7 0.0 0.00 0.00 0.00 44 1014.0
20260507100311 25 310 9.7 0.0 0.00 0.00 0.00 44 1014.0
20260507094811 23 310 16.1 0.0 0.00 0.00 0.00 44 1014.0
20260507093311 23 310 16.1 0.0 0.00 0.00 0.00 44 1014.0
20260507091812 23 300 8.0 0.0 0.00 0.00 0.00 41 1014.0
20260507090311 23 300 8.0 0.0 0.00 0.00 0.00 41 1014.0
20260507084811 22 250 9.7 0.0 0.00 0.00 0.00 50 1014.0
20260507083311 22 250 9.7 0.0 0.00 0.00 0.00 50 1014.0
20260507081811 21 250 12.9 0.0 0.00 0.00 0.00 60 1014.0
20260507080312 21 250 12.9 0.0 0.00 0.00 0.00 60 1014.0
20260507074811 21 280 4.8 0.0 0.00 0.00 0.00 57 1014.0
20260507073311 21 280 4.8 0.0 0.00 0.00 0.00 57 1014.0
20260507071811 21 270 8.0 0.0 0.00 0.00 0.00 57 1014.0
20260507070311 21 230 4.8 0.0 0.00 0.00 0.00 57 1014.0
20260507064811 20 230 4.8 0.0 0.00 0.00 0.00 60 1014.0
20260507063311 20 230 4.8 0.0 0.00 0.00 0.00 60 1014.0
20260507061823 18 140 4.8 0.0 0.00 0.00 0.00 56 1014.0
20260507060311 18 140 4.8 0.0 0.00 0.00 0.00 56 1014.0
20260507054811 17 1.6 0.0 0.00 0.00 0.00 60 1014.0
20260507053318 17 1.6 0.0 0.00 0.00 0.00 60 1014.0
20260507051811 13 3.2 0.0 0.00 0.00 0.00 77 1014.0
20260507050311 13 3.2 0.0 0.00 0.00 0.00 77 1014.0
20260507044811 12 3.2 0.0 0.00 0.00 0.00 88 1014.0